Shanghai Hongqiao, Shanghai

11:29 AM CST on August 25, 2016 (GMT +0800)
Hongqiao

Weather History for ZSSS - July, 2013

Change the Weather History Date:

Friday, July 26, 2013

  Actual Average Record
Temperature  
Mean Temperature 96 °F -  
Max Temperature 105 °F 89 °F 105 °F (2013)
Min Temperature 87 °F 76 °F 75 °F (1997)
Cooling Degree Days 31    
Growing Degree Days 46 (Base 50)    
Moisture  
Dew Point 73 °F    
Average Humidity 51    
Maximum Humidity 70    
Minimum Humidity 28    
Precipitation  
Precipitation 0.00 in 0.17 in - ()
Sea Level Pressure  
Sea Level Pressure 29.63 in    
Wind  
Wind Speed 6 mph ()    
Max Wind Speed 18 mph    
Max Gust Speed 29 mph    
Visibility 6.2 miles    
Events Thunderstorm    
Averages and records for this station are not official NWS values.
T = Trace of Precipitation, MM = Missing Value Source: Averaged Metar Reports

Daily Weather History Graph

Daily Weather History Graph

Search for Another Location

Airport or City:

Trip Planner

Search our weather history database for the weather conditions in past years. The results will help you decide how hot, cold, wet, or windy it might be!

Date:

Astronomy

Jul. 26, 2013 Rise Set
Actual Time 5:07 AM CST 6:54 PM CST
Civil Twilight 4:40 AM CST 7:21 PM CST
Nautical Twilight 4:08 AM CST 7:53 PM CST
Astronomical Twilight 3:34 AM CST 8:27 PM CST
Moon 9:10 PM CST (7/26) 8:45 AM CST (7/26)
Length of Visible Light 14h 40m
Length of Day
13h 46m
Waning Gibbous, 84% of the Moon is Illuminated
Jul 26
Waning Gibbous
Jul 30
Last Quarter
Aug 7
New
Aug 14
First Quarter
Aug 21
Full

Hourly Weather History & Observations

Time (CST) Temp. Heat Index Dew Point Humidity Pressure Visibility Wind Dir Wind Speed Gust Speed Precip Events Conditions
12:00 AM 91.4 °F 102.5 °F 75.2 °F 59% 29.62 in - SSE 6.7 mph - N/A   Clear
12:30 AM 91.4 °F 105.1 °F 77.0 °F 63% 29.62 in - SSE 4.5 mph - N/A   Clear
1:00 AM 91.4 °F 102.5 °F 75.2 °F 59% 29.62 in - South 6.7 mph - N/A   Clear
1:30 AM 89.6 °F 99.8 °F 75.2 °F 62% 29.62 in - South 6.7 mph - N/A   Clear
2:00 AM 89.6 °F 99.8 °F 75.2 °F 62% 29.62 in - South 6.7 mph - N/A   Clear
2:30 AM 89.6 °F 99.8 °F 75.2 °F 62% 29.62 in - South 8.9 mph - N/A   Clear
3:00 AM 89.6 °F 99.8 °F 75.2 °F 62% 29.62 in - SSE 4.5 mph - N/A   Clear
3:30 AM 89.6 °F 99.8 °F 75.2 °F 62% 29.62 in - SSE 4.5 mph - N/A   Clear
4:00 AM 89.6 °F 99.8 °F 75.2 °F 62% 29.62 in - South 6.7 mph - N/A   Clear
4:30 AM 89.6 °F 99.8 °F 75.2 °F 62% 29.62 in - SSE 6.7 mph - N/A   Clear
5:00 AM 89.6 °F 99.8 °F 75.2 °F 62% 29.62 in - SE 4.5 mph - N/A   Clear
5:30 AM 87.8 °F 97.6 °F 75.2 °F 66% 29.65 in - South 6.7 mph - N/A   Clear
6:00 AM 87.8 °F 99.7 °F 77.0 °F 70% 29.65 in - South 4.5 mph - N/A   Clear
6:30 AM 87.8 °F 99.7 °F 77.0 °F 70% 29.65 in - South 6.7 mph - N/A   Clear
7:00 AM 89.6 °F 102.2 °F 77.0 °F 66% 29.65 in - South 6.7 mph - N/A   Clear
7:30 AM 91.4 °F 105.1 °F 77.0 °F 63% 29.65 in - South 8.9 mph - N/A   Clear
8:00 AM 93.2 °F 107.2 °F 77.0 °F 59% 29.65 in - South 4.5 mph - N/A   Clear
8:30 AM 98.6 °F 111.7 °F 75.2 °F 47% 29.65 in - SW 6.7 mph - N/A   Clear
9:00 AM 98.6 °F 114.4 °F 77.0 °F 50% 29.65 in - SSW 6.7 mph - N/A   Clear
9:30 AM 100.4 °F 109.3 °F 71.6 °F 39% 29.65 in - SW 6.7 mph 20.1 mph N/A   Clear
10:00 AM 98.6 °F 109.2 °F 73.4 °F 44% 29.65 in - WSW 8.9 mph - N/A   Clear
10:30 AM 100.4 °F 109.3 °F 71.6 °F 39% 29.65 in - WSW 8.9 mph - N/A   Clear
11:00 AM 102.2 °F 114.4 °F 73.4 °F 40% 29.65 in - WSW 8.9 mph - N/A   Clear
11:30 AM 100.4 °F 111.9 °F 73.4 °F 42% 29.62 in - West 8.9 mph - N/A   Clear
12:00 PM 102.2 °F 116.3 °F 75.2 °F 42% 29.62 in 6.2 mi West 8.9 mph 20.1 mph N/A   Scattered Clouds
12:30 PM 104.0 °F 112.2 °F 69.8 °F 33% 29.62 in 6.2 mi West 8.9 mph - N/A   Scattered Clouds
1:00 PM 104.0 °F 112.2 °F 69.8 °F 33% 29.62 in 6.2 mi Variable 11.2 mph 26.8 mph N/A   Scattered Clouds
1:30 PM 104.0 °F 112.2 °F 69.8 °F 33% 29.62 in 6.2 mi WSW 8.9 mph 20.1 mph N/A   Scattered Clouds
2:00 PM 105.8 °F 111.5 °F 66.2 °F 28% 29.59 in 6.2 mi Variable 6.7 mph - N/A   Scattered Clouds
2:30 PM 105.8 °F 114.2 °F 69.8 °F 31% 29.59 in 6.2 mi West 6.7 mph - N/A   Scattered Clouds
3:00 PM 104.0 °F 110.5 °F 68.0 °F 31% 29.59 in 6.2 mi WSW 8.9 mph - N/A   Mostly Cloudy
3:30 PM 100.4 °F 111.9 °F 73.4 °F 42% 29.59 in 6.2 mi North 13.4 mph 24.6 mph N/A Thunderstorm Thunderstorm
4:00 PM 91.4 °F 98.4 °F 71.6 °F 52% 29.62 in 6.2 mi East 17.9 mph 29.1 mph N/A Thunderstorm Thunderstorm
4:30 PM 89.6 °F 93.4 °F 68.0 °F 49% 29.62 in 6.2 mi East 13.4 mph - N/A   Partly Cloudy
5:00 PM 91.4 °F 98.4 °F 71.6 °F 52% 29.59 in 6.2 mi East 11.2 mph - N/A   Partly Cloudy
5:30 PM 91.4 °F 95.4 °F 68.0 °F 46% 29.59 in - SE 8.9 mph - N/A   Clear
6:00 PM 91.4 °F 95.4 °F 68.0 °F 46% 29.62 in - SSE 4.5 mph - N/A   Clear
6:30 PM 91.4 °F 95.4 °F 68.0 °F 46% 29.62 in - Variable 2.2 mph - N/A   Clear
7:00 PM 93.2 °F 97.7 °F 68.0 °F 44% 29.62 in - Variable 4.5 mph - N/A   Clear
7:30 PM 93.2 °F 100.5 °F 71.6 °F 49% 29.62 in - ESE 4.5 mph - N/A   Clear
8:00 PM 93.2 °F 102.4 °F 73.4 °F 52% 29.65 in - ESE 6.7 mph - N/A   Clear
8:30 PM 91.4 °F 102.5 °F 75.2 °F 59% 29.65 in - SE 6.7 mph - N/A   Clear
9:00 PM 91.4 °F 102.5 °F 75.2 °F 59% 29.65 in - SE 4.5 mph - N/A   Clear
9:30 PM 91.4 °F 102.5 °F 75.2 °F 59% 29.65 in - ESE 4.5 mph - N/A   Clear
10:00 PM 91.4 °F 98.4 °F 71.6 °F 52% 29.65 in - SE 8.9 mph - N/A   Clear
10:30 PM 91.4 °F 98.4 °F 71.6 °F 52% 29.65 in - ESE 6.7 mph - N/A   Clear
11:00 PM 91.4 °F 98.4 °F 71.6 °F 52% 29.65 in - SE 6.7 mph - N/A   Clear
11:30 PM 89.6 °F 96.2 °F 71.6 °F 55% 29.65 in - SSE 8.9 mph - N/A   Clear